When you browse on this site, cookies collect data to enhance your experience and personalize the content and advertising you see.
Visit our Privacy Policy to learn more. By continuing to use the site, you agree to this use of cookies and data.
EN

Hourly Weather Lozy

Today, 4 August, Tuesday

Time Temperature Precipitation Wind Pressure Humidity
00:00 +15°C° 0.6 mm 1 mps 751 mmHg 98%
01:00 +16°C° 0 mm 1 mps 751 mmHg 99%
02:00 +16°C° 0.2 mm 1 mps 751 mmHg 98%
03:00 +16°C° 0.2 mm 1 mps 751 mmHg 98%
04:00 +16°C° 0.2 mm 1 mps 751 mmHg 98%
05:00 +16°C° 0.1 mm 1 mps 751 mmHg 97%
06:00 +18°C° 0.1 mm 1 mps 751 mmHg 96%
07:00 +17°C° 0 mm 2 mps 752 mmHg 95%
08:00 +17°C° 0 mm 2 mps 752 mmHg 93%
09:00 +18°C° 0 mm 2 mps 752 mmHg 91%
10:00 +18°C° 0 mm 2 mps 752 mmHg 89%
11:00 +18°C° 0.8 mm 3 mps 752 mmHg 89%
12:00 +18°C° 0.8 mm 3 mps 752 mmHg 90%
13:00 +17°C° 0.8 mm 3 mps 752 mmHg 90%
14:00 +17°C° 0.3 mm 3 mps 753 mmHg 90%
15:00 +17°C° 0.3 mm 3 mps 753 mmHg 89%
16:00 +17°C° 0.3 mm 4 mps 753 mmHg 89%
17:00 +17°C° 0 mm 4 mps 754 mmHg 89%
18:00 +17°C° 0 mm 4 mps 754 mmHg 89%
19:00 +15°C° 0 mm 4 mps 754 mmHg 89%
20:00 +15°C° 0 mm 4 mps 755 mmHg 90%
21:00 +14°C° 0 mm 3 mps 755 mmHg 91%
22:00 +13°C° 0 mm 3 mps 756 mmHg 91%
23:00 +12°C° 0 mm 3 mps 756 mmHg 91%

Tomorrow, 5 August, Wednesday

Time Temperature Precipitation Wind Pressure Humidity
00:00 +12°C° 0 mm 3 mps 756 mmHg 91%
01:00 +13°C° 0 mm 2 mps 757 mmHg 90%
02:00 +13°C° 0 mm 2 mps 757 mmHg 91%
03:00 +11°C° 0 mm 3 mps 757 mmHg 91%
04:00 +11°C° 0 mm 3 mps 758 mmHg 91%
05:00 +13°C° 0 mm 3 mps 758 mmHg 87%
06:00 +16°C° 0 mm 3 mps 758 mmHg 82%
07:00 +17°C° 0 mm 3 mps 759 mmHg 78%
08:00 +18°C° 0 mm 3 mps 759 mmHg 71%
09:00 +19°C° 0 mm 3 mps 759 mmHg 64%
10:00 +20°C° 0 mm 2 mps 760 mmHg 57%
11:00 +21°C° 0 mm 2 mps 760 mmHg 55%
12:00 +21°C° 0 mm 2 mps 760 mmHg 53%
13:00 +23°C° 0 mm 2 mps 760 mmHg 51%
14:00 +21°C° 0 mm 2 mps 760 mmHg 52%
15:00 +21°C° 0 mm 2 mps 760 mmHg 54%
16:00 +21°C° 0 mm 2 mps 760 mmHg 55%
17:00 +20°C° 0 mm 2 mps 761 mmHg 61%
18:00 +18°C° 0 mm 2 mps 761 mmHg 66%
19:00 +17°C° 0 mm 2 mps 761 mmHg 72%
20:00 +16°C° 0 mm 2 mps 761 mmHg 74%
21:00 +15°C° 0 mm 2 mps 762 mmHg 77%
22:00 +14°C° 0 mm 2 mps 762 mmHg 79%
23:00 +14°C° 0 mm 2 mps 762 mmHg 80%

Day after tomorrow, 6 August, Thursday

Time Temperature Precipitation Wind Pressure Humidity
00:00 +14°C° 0 mm 2 mps 762 mmHg 80%
01:00 +14°C° 0 mm 2 mps 762 mmHg 81%
02:00 +13°C° 0 mm 2 mps 762 mmHg 81%
03:00 +13°C° 0 mm 2 mps 763 mmHg 81%
04:00 +13°C° 0 mm 2 mps 763 mmHg 82%
05:00 +15°C° 0 mm 1 mps 763 mmHg 77%
06:00 +16°C° 0 mm 1 mps 763 mmHg 73%
07:00 +19°C° 0 mm 1 mps 763 mmHg 69%
08:00 +21°C° 0 mm 1 mps 764 mmHg 63%
09:00 +22°C° 0 mm 1 mps 764 mmHg 58%
10:00 +24°C° 0 mm 1 mps 764 mmHg 52%
11:00 +24°C° 0 mm 2 mps 764 mmHg 51%
12:00 +25°C° 0 mm 2 mps 764 mmHg 49%
13:00 +25°C° 0 mm 2 mps 764 mmHg 47%
14:00 +25°C° 0 mm 3 mps 764 mmHg 50%
15:00 +25°C° 0 mm 3 mps 764 mmHg 52%
16:00 +25°C° 0 mm 3 mps 764 mmHg 55%
17:00 +22°C° 0 mm 3 mps 764 mmHg 61%
18:00 +21°C° 0 mm 3 mps 764 mmHg 67%
19:00 +19°C° 0 mm 3 mps 764 mmHg 73%
20:00 +18°C° 0 mm 3 mps 764 mmHg 75%
21:00 +17°C° 0 mm 3 mps 764 mmHg 77%
22:00 +16°C° 0 mm 3 mps 765 mmHg 80%
23:00 +16°C° 0 mm 3 mps 765 mmHg 81%

7 August, Friday

Time Temperature Precipitation Wind Pressure Humidity
00:00 +16°C° 0 mm 3 mps 765 mmHg 82%
01:00 +14°C° 0 mm 3 mps 765 mmHg 83%
02:00 +14°C° 0 mm 3 mps 765 mmHg 84%
03:00 +14°C° 0 mm 3 mps 765 mmHg 84%
04:00 +14°C° 0 mm 3 mps 765 mmHg 85%
05:00 +16°C° 0 mm 3 mps 765 mmHg 81%
06:00 +17°C° 0 mm 3 mps 765 mmHg 78%
07:00 +19°C° 0 mm 3 mps 765 mmHg 74%
08:00 +21°C° 0 mm 3 mps 765 mmHg 70%
09:00 +22°C° 0 mm 3 mps 765 mmHg 66%
10:00 +25°C° 0 mm 3 mps 765 mmHg 62%
11:00 +26°C° 0 mm 3 mps 765 mmHg 60%
12:00 +26°C° 0 mm 3 mps 765 mmHg 58%
13:00 +27°C° 0 mm 3 mps 765 mmHg 56%
14:00 +27°C° 0 mm 3 mps 764 mmHg 57%
15:00 +27°C° 0 mm 3 mps 764 mmHg 58%
16:00 +27°C° 0 mm 4 mps 764 mmHg 60%
17:00 +25°C° 0 mm 3 mps 764 mmHg 66%
18:00 +24°C° 0 mm 3 mps 764 mmHg 73%
19:00 +21°C° 0 mm 3 mps 764 mmHg 79%
20:00 +20°C° 0 mm 3 mps 764 mmHg 82%
21:00 +19°C° 0 mm 3 mps 764 mmHg 85%
22:00 +18°C° 0 mm 3 mps 764 mmHg 87%
23:00 +18°C° 0 mm 3 mps 764 mmHg 88%

8 August, Saturday

Time Temperature Precipitation Wind Pressure Humidity
00:00 +17°C° 0 mm 2 mps 764 mmHg 88%
01:00 +17°C° 0 mm 2 mps 764 mmHg 88%
02:00 +17°C° 0 mm 2 mps 764 mmHg 89%
03:00 +17°C° 0 mm 2 mps 763 mmHg 90%
04:00 +16°C° 0 mm 2 mps 763 mmHg 91%
05:00 +18°C° 0 mm 2 mps 763 mmHg 87%
06:00 +19°C° 0 mm 2 mps 763 mmHg 83%
07:00 +20°C° 0 mm 2 mps 763 mmHg 80%
08:00 +23°C° 0 mm 2 mps 763 mmHg 74%
09:00 +25°C° 0 mm 2 mps 763 mmHg 68%
10:00 +26°C° 0 mm 2 mps 763 mmHg 62%
11:00 +27°C° 0 mm 2 mps 763 mmHg 60%
12:00 +27°C° 0 mm 2 mps 762 mmHg 58%
13:00 +28°C° 0 mm 2 mps 762 mmHg 55%
14:00 +28°C° 0 mm 2 mps 761 mmHg 56%
15:00 +28°C° 0 mm 2 mps 761 mmHg 57%
16:00 +28°C° 0 mm 2 mps 761 mmHg 58%
17:00 +26°C° 0 mm 3 mps 761 mmHg 66%
18:00 +24°C° 0 mm 3 mps 761 mmHg 73%
19:00 +22°C° 0 mm 3 mps 761 mmHg 81%
20:00 +21°C° 0 mm 3 mps 761 mmHg 84%
21:00 +20°C° 0 mm 3 mps 761 mmHg 88%
22:00 +19°C° 0 mm 2 mps 761 mmHg 91%
23:00 +19°C° 0 mm 2 mps 760 mmHg 91%

9 August, Sunday

Time Temperature Precipitation Wind Pressure Humidity
00:00 +18°C° 0 mm 2 mps 760 mmHg 91%
01:00 +18°C° 0 mm 2 mps 760 mmHg 91%
02:00 +18°C° 0 mm 2 mps 760 mmHg 92%
03:00 +18°C° 0 mm 2 mps 760 mmHg 92%
04:00 +17°C° 0 mm 2 mps 760 mmHg 93%
05:00 +19°C° 0 mm 2 mps 760 mmHg 89%
06:00 +20°C° 0 mm 2 mps 760 mmHg 85%
07:00 +21°C° 0 mm 2 mps 760 mmHg 80%
08:00 +23°C° 0 mm 2 mps 760 mmHg 75%
09:00 +25°C° 0 mm 2 mps 760 mmHg 70%
10:00 +26°C° 0 mm 2 mps 759 mmHg 64%
11:00 +27°C° 0 mm 2 mps 759 mmHg 62%
12:00 +27°C° 0 mm 3 mps 759 mmHg 59%
13:00 +28°C° 0 mm 3 mps 759 mmHg 57%
14:00 +27°C° 0 mm 3 mps 759 mmHg 59%
15:00 +27°C° 0 mm 3 mps 758 mmHg 61%
16:00 +27°C° 0 mm 3 mps 758 mmHg 63%
17:00 +25°C° 0.1 mm 3 mps 758 mmHg 70%
18:00 +24°C° 0.1 mm 3 mps 758 mmHg 78%
19:00 +21°C° 0.1 mm 3 mps 758 mmHg 85%
20:00 +20°C° 0 mm 3 mps 758 mmHg 87%
21:00 +19°C° 0 mm 2 mps 758 mmHg 90%
22:00 +18°C° 0 mm 2 mps 758 mmHg 92%
23:00 +18°C° 0 mm 2 mps 758 mmHg 92%
Show more